Location: *
(34.8620°S, 39.3380°E)
Time: 08:55:43
(UTC+00:00)

Cosmos 2369 Rocket - Pass Details

Date: 27 July 2021
Orbit: 830 x 851 km, 71.0° (Epoch: 22 September)

Event Time Altitude Azimuth Distance (km) Brightness Sun altitude
Exits shadow 03:51:00 - 217° (SW) 3,216 4.7 -6.6°
Reaches altitude 10° 03:53:15 10° 227° (SW) 2,475 4.1 -6.1°
Maximum altitude 03:57:50 26° 282° (WNW) 1,613 3.2 -5.2°
Drops below altitude 10° 04:02:25 10° 336° (NNW) 2,462 4.6 -4.3°
Sets 04:05:14 0° 348° (NNW) 3,392 5.5 -3.8°
